EZY8467 EGKK-LFRB

Flight info

Callsign EZY8467
Flight time N/A
Altitude 27000
Route NOVMA L620 SAM M195 MARUK/N0409F290 N621 LELNA DCT BADUR T120 ANLEV
Aircraft A320/M-SDE2E3FGHIJ1RWXYZ/LB1

Departure

Time 2026-04-14 14:33
Airport London Gatwick Airport (EGKK)

Arrival

Time N/A
Airport Brest Bretagne airport (LFRB)
Time Latitude Longitude Altitude Speed Heading
2026-04-14 13:43 51.15489 -0.18477 216 ft 0 kts 258°
2026-04-14 14:16 51.15490 -0.18473 210 ft 3 kts 259°
2026-04-14 14:17 51.15485 -0.18399 208 ft 4 kts 256°
2026-04-14 14:17 51.15493 -0.18358 209 ft 4 kts 241°
2026-04-14 14:17 51.15509 -0.18329 215 ft 4 kts 197°
2026-04-14 14:17 51.15528 -0.18328 205 ft 4 kts 168°
2026-04-14 14:18 51.15541 -0.18333 208 ft 1 kts 168°
2026-04-14 14:22 51.15515 -0.18324 215 ft 9 kts 168°
2026-04-14 14:23 51.15442 -0.18299 210 ft 13 kts 168°
2026-04-14 14:23 51.15345 -0.18266 205 ft 16 kts 168°
2026-04-14 14:23 51.15280 -0.18243 208 ft 6 kts 168°
2026-04-14 14:23 51.15268 -0.18239 205 ft 0 kts 168°
2026-04-14 14:24 51.15263 -0.18237 205 ft 0 kts 168°
2026-04-14 14:24 51.15262 -0.18237 205 ft 1 kts 167°
2026-04-14 14:24 51.15261 -0.18237 205 ft 0 kts 168°
2026-04-14 14:25 51.15238 -0.18229 205 ft 7 kts 167°
2026-04-14 14:25 51.15173 -0.18206 205 ft 12 kts 167°
2026-04-14 14:25 51.15128 -0.18100 209 ft 15 kts 82°
2026-04-14 14:26 51.15152 -0.17921 205 ft 18 kts 78°
2026-04-14 14:26 51.15182 -0.17702 205 ft 22 kts 78°
2026-04-14 14:26 51.15209 -0.17508 205 ft 15 kts 77°
2026-04-14 14:26 51.15216 -0.17458 218 ft 0 kts 77°
2026-04-14 14:27 51.15216 -0.17455 218 ft 0 kts 77°
2026-04-14 14:27 51.15218 -0.17447 214 ft 1 kts 77°
2026-04-14 14:27 51.15220 -0.17431 210 ft 2 kts 77°
2026-04-14 14:27 51.15225 -0.17395 208 ft 7 kts 77°
2026-04-14 14:28 51.15228 -0.17318 210 ft 7 kts 106°
2026-04-14 14:28 51.15195 -0.17262 209 ft 8 kts 137°
2026-04-14 14:28 51.15184 -0.17185 206 ft 7 kts 82°
2026-04-14 14:28 51.15195 -0.17102 206 ft 8 kts 78°
2026-04-14 14:29 51.15206 -0.17019 208 ft 3 kts 77°
2026-04-14 14:29 51.15210 -0.16990 206 ft 3 kts 77°
2026-04-14 14:29 51.15212 -0.16980 206 ft 2 kts 77°
2026-04-14 14:29 51.15218 -0.16933 212 ft 5 kts 77°
2026-04-14 14:30 51.15219 -0.16929 211 ft 0 kts 77°
2026-04-14 14:30 51.15219 -0.16928 210 ft 0 kts 77°
2026-04-14 14:30 51.15219 -0.16927 210 ft 0 kts 77°
2026-04-14 14:30 51.15220 -0.16925 209 ft 1 kts 77°
2026-04-14 14:31 51.15217 -0.16840 208 ft 13 kts 114°
2026-04-14 14:31 51.15135 -0.16809 215 ft 15 kts 214°
2026-04-14 14:31 51.15113 -0.16867 212 ft 0 kts 258°
2026-04-14 14:32 51.15100 -0.16963 211 ft 37 kts 257°
2026-04-14 14:33 51.14976 -0.17868 211 ft 127 kts 257°
2026-04-14 14:33 51.14752 -0.19553 478 ft 169 kts 253°
2026-04-14 14:33 51.14520 -0.21409 1467 ft 176 kts 251°
2026-04-14 14:33 51.14250 -0.23408 2158 ft 195 kts 252°
2026-04-14 14:34 51.13563 -0.28142 3614 ft 244 kts 253°
2026-04-14 14:34 51.13179 -0.30829 3922 ft 252 kts 253°
2026-04-14 14:34 51.12799 -0.33555 4000 ft 252 kts 253°
2026-04-14 14:35 51.12422 -0.36274 4005 ft 251 kts 253°
2026-04-14 14:35 51.12047 -0.38985 4008 ft 251 kts 253°
2026-04-14 14:35 51.11676 -0.41650 4011 ft 250 kts 253°
2026-04-14 14:35 51.11098 -0.44225 4011 ft 246 kts 239°
2026-04-14 14:36 51.10070 -0.46344 4008 ft 242 kts 218°
2026-04-14 14:36 51.08592 -0.47554 4010 ft 241 kts 194°
2026-04-14 14:36 51.06918 -0.47599 4010 ft 244 kts 169°
2026-04-14 14:36 51.05390 -0.46425 4011 ft 250 kts 144°
2026-04-14 14:37 51.04332 -0.44207 4015 ft 259 kts 117°
2026-04-14 14:37 51.03985 -0.41359 4012 ft 268 kts 98°
2026-04-14 14:37 51.03865 -0.38389 4013 ft 269 kts 98°
2026-04-14 14:37 51.03752 -0.35466 3947 ft 267 kts 98°
2026-04-14 14:38 51.03638 -0.32501 3470 ft 264 kts 98°
2026-04-14 14:38 51.03524 -0.29638 3067 ft 261 kts 98°
2026-04-14 14:38 51.03404 -0.26750 3010 ft 263 kts 98°
2026-04-14 14:38 51.03281 -0.23855 3008 ft 263 kts 98°
2026-04-14 14:39 51.03158 -0.20967 3012 ft 263 kts 98°
2026-04-14 14:39 51.03033 -0.18072 3010 ft 262 kts 98°
2026-04-14 14:39 51.02907 -0.15192 3012 ft 261 kts 98°
2026-04-14 14:39 51.02781 -0.12310 3008 ft 263 kts 99°
2026-04-14 14:40 51.02653 -0.09403 3014 ft 264 kts 99°
2026-04-14 14:40 51.02526 -0.06495 3012 ft 263 kts 99°
2026-04-14 14:40 51.02403 -0.03647 3013 ft 261 kts 98°
2026-04-14 14:40 51.02286 -0.00870 3002 ft 242 kts 98°
2026-04-14 14:41 51.02175 0.01720 2972 ft 231 kts 99°
2026-04-14 14:41 51.02062 0.04265 2968 ft 231 kts 99°
2026-04-14 14:41 51.01946 0.06800 2960 ft 230 kts 99°
2026-04-14 14:41 51.01827 0.09336 2974 ft 232 kts 99°
2026-04-14 14:42 51.01685 0.11944 3167 ft 238 kts 104°
2026-04-14 14:42 51.01084 0.14243 3048 ft 220 kts 132°
2026-04-14 14:42 50.99946 0.15753 2947 ft 211 kts 158°
2026-04-14 14:42 50.98550 0.16292 2941 ft 207 kts 181°
2026-04-14 14:43 50.97173 0.15854 2949 ft 206 kts 204°
2026-04-14 14:43 50.96023 0.14500 2964 ft 210 kts 227°
2026-04-14 14:43 50.95344 0.12430 2975 ft 216 kts 252°
2026-04-14 14:43 50.95321 0.10016 2983 ft 225 kts 276°
2026-04-14 14:44 50.95677 0.07591 2994 ft 226 kts 279°
2026-04-14 14:44 50.96072 0.05173 2993 ft 226 kts 279°
2026-04-14 14:44 50.96471 0.02764 2999 ft 227 kts 279°
2026-04-14 14:44 50.96872 0.00335 3016 ft 228 kts 279°
2026-04-14 14:45 50.97352 -0.02065 3021 ft 231 kts 292°
2026-04-14 14:45 50.98395 -0.03988 3017 ft 240 kts 321°
2026-04-14 14:45 50.99973 -0.04906 3014 ft 248 kts 354°
2026-04-14 14:45 51.01654 -0.04413 3012 ft 248 kts 28°
2026-04-14 14:46 51.02920 -0.02644 3007 ft 242 kts 62°
2026-04-14 14:46 51.03448 -0.00184 3003 ft 233 kts 92°
2026-04-14 14:46 51.03238 0.02305 2970 ft 226 kts 109°
2026-04-14 14:46 51.02857 0.04721 2961 ft 226 kts 110°
2026-04-14 14:47 51.02457 0.07140 2953 ft 226 kts 110°
2026-04-14 14:47 51.02059 0.09551 2945 ft 226 kts 110°
2026-04-14 14:47 51.01649 0.11953 2939 ft 224 kts 115°
2026-04-14 14:47 51.00811 0.13936 2940 ft 215 kts 143°
2026-04-14 14:48 50.99511 0.14981 2940 ft 208 kts 171°
2026-04-14 14:48 50.98105 0.14920 2950 ft 206 kts 196°
2026-04-14 14:48 50.96869 0.13802 2963 ft 208 kts 222°
2026-04-14 14:48 50.96098 0.11842 2977 ft 215 kts 249°
2026-04-14 14:49 50.96032 0.09446 2986 ft 225 kts 277°
2026-04-14 14:49 50.96402 0.07027 2989 ft 226 kts 279°
2026-04-14 14:49 50.96797 0.04617 3001 ft 226 kts 279°
2026-04-14 14:49 50.97195 0.02207 2994 ft 225 kts 279°
2026-04-14 14:50 50.97593 -0.00210 3018 ft 228 kts 281°
2026-04-14 14:50 50.98340 -0.02411 3023 ft 237 kts 309°
2026-04-14 14:50 50.99775 -0.03721 3013 ft 246 kts 345°
2026-04-14 14:50 51.01467 -0.03558 3014 ft 247 kts 22°
2026-04-14 14:51 51.02808 -0.01942 3012 ft 242 kts 58°
2026-04-14 14:51 51.03365 0.00494 2968 ft 232 kts 92°
2026-04-14 14:51 51.03127 0.02964 2967 ft 225 kts 110°
2026-04-14 14:51 51.02734 0.05379 2963 ft 226 kts 110°
2026-04-14 14:52 51.02339 0.07794 2947 ft 225 kts 110°
2026-04-14 14:52 51.01947 0.10207 2948 ft 226 kts 110°
2026-04-14 14:52 51.01482 0.12570 2939 ft 221 kts 123°
2026-04-14 14:52 51.00507 0.14313 2936 ft 212 kts 151°
2026-04-14 14:53 50.99151 0.15079 2947 ft 207 kts 178°
2026-04-14 14:53 50.97749 0.14734 2952 ft 206 kts 202°
2026-04-14 14:53 50.96616 0.13377 2964 ft 208 kts 229°
2026-04-14 14:53 50.96010 0.11271 2974 ft 216 kts 256°
2026-04-14 14:54 50.96113 0.08860 2992 ft 225 kts 279°
2026-04-14 14:54 50.96497 0.06448 3000 ft 226 kts 279°
2026-04-14 14:54 50.96895 0.04041 3002 ft 226 kts 279°
2026-04-14 14:54 50.97288 0.01669 3004 ft 225 kts 279°
2026-04-14 14:55 50.97703 -0.00742 3025 ft 229 kts 285°
2026-04-14 14:55 50.98629 -0.02829 3020 ft 239 kts 317°
2026-04-14 14:55 51.00185 -0.03867 3017 ft 254 kts 352°
2026-04-14 14:55 51.01947 -0.03557 3023 ft 258 kts 17°
2026-04-14 14:56 51.05267 -0.01655 3010 ft 251 kts 21°
2026-04-14 14:56 51.06898 -0.00672 3001 ft 251 kts 21°
2026-04-14 14:56 51.08528 0.00300 2956 ft 250 kts 21°
2026-04-14 14:57 51.10135 0.01316 2950 ft 249 kts 29°
2026-04-14 14:57 51.11553 0.02877 2943 ft 248 kts 40°
2026-04-14 14:57 51.12882 0.04573 2938 ft 248 kts 41°
2026-04-14 14:57 51.14185 0.06269 2918 ft 234 kts 41°
2026-04-14 14:58 51.15589 0.07438 2775 ft 227 kts 10°
2026-04-14 14:58 51.17082 0.07099 2662 ft 212 kts 323°
2026-04-14 14:58 51.17910 0.05424 2539 ft 182 kts 277°
2026-04-14 14:58 51.17827 0.03523 2215 ft 172 kts 253°
2026-04-14 14:59 51.17606 0.01639 1950 ft 175 kts 253°
2026-04-14 14:59 51.17364 -0.00280 2022 ft 178 kts 252°
2026-04-14 14:59 51.17110 -0.02199 2018 ft 177 kts 251°
2026-04-14 14:59 51.16854 -0.04105 1866 ft 173 kts 250°
2026-04-14 15:00 51.16608 -0.05930 1667 ft 162 kts 250°
2026-04-14 15:00 51.16384 -0.07585 1470 ft 150 kts 249°
2026-04-14 15:00 51.16165 -0.09180 1284 ft 146 kts 250°
2026-04-14 15:00 51.15946 -0.10767 1071 ft 147 kts 251°
2026-04-14 15:01 51.15731 -0.12360 884 ft 148 kts 252°
2026-04-14 15:01 51.15515 -0.13964 668 ft 148 kts 247°
2026-04-14 15:01 51.15291 -0.15546 466 ft 147 kts 253°
2026-04-14 15:01 51.15077 -0.17145 250 ft 146 kts 249°
2026-04-14 15:02 51.14869 -0.18665 477 ft 153 kts 254°
2026-04-14 15:02 51.14650 -0.20364 1604 ft 158 kts 252°
2026-04-14 15:02 51.14439 -0.22142 2383 ft 171 kts 252°
2026-04-14 15:02 51.14266 -0.24063 2900 ft 182 kts 266°
2026-04-14 15:03 51.14228 -0.26062 3037 ft 179 kts 255°
2026-04-14 15:03 51.13976 -0.27969 3020 ft 172 kts 243°
2026-04-14 15:03 51.13214 -0.29265 3016 ft 163 kts 203°
2026-04-14 15:03 51.12086 -0.29491 3012 ft 167 kts 175°
2026-04-14 15:04 51.11035 -0.28563 3009 ft 191 kts 135°
2026-04-14 15:04 51.10530 -0.26531 3010 ft 210 kts 99°
2026-04-14 15:04 51.10632 -0.24167 3015 ft 217 kts 88°
2026-04-14 15:04 51.10860 -0.21788 3013 ft 217 kts 86°
2026-04-14 15:05 51.11096 -0.19422 3008 ft 215 kts 86°
2026-04-14 15:05 51.11312 -0.17065 3013 ft 215 kts 89°
2026-04-14 15:05 51.11443 -0.14697 3011 ft 215 kts 91°
2026-04-14 15:05 51.11560 -0.12322 3008 ft 215 kts 91°
2026-04-14 15:06 51.11673 -0.09956 3008 ft 215 kts 91°
2026-04-14 15:06 51.11787 -0.07578 2994 ft 213 kts 91°
2026-04-14 15:06 51.11903 -0.05242 2601 ft 213 kts 91°
2026-04-14 15:06 51.12026 -0.02899 2226 ft 211 kts 90°
2026-04-14 15:07 51.12531 -0.00702 2003 ft 216 kts 55°
2026-04-14 15:07 51.13714 0.00585 1952 ft 209 kts 17°
2026-04-14 15:07 51.15127 0.00571 1954 ft 204 kts 340°
2026-04-14 15:07 51.16255 -0.00548 2014 ft 181 kts 306°
2026-04-14 15:08 51.16833 -0.02224 2017 ft 167 kts 276°
2026-04-14 15:08 51.16871 -0.03989 2007 ft 155 kts 251°
2026-04-14 15:08 51.16648 -0.05635 1911 ft 149 kts 249°
2026-04-14 15:08 51.16427 -0.07252 1580 ft 147 kts 249°
2026-04-14 15:09 51.16212 -0.08823 1345 ft 144 kts 250°
2026-04-14 15:09 51.15998 -0.10383 1128 ft 144 kts 250°
2026-04-14 15:09 51.15784 -0.11947 921 ft 144 kts 251°
2026-04-14 15:09 51.15569 -0.13508 717 ft 148 kts 252°
2026-04-14 15:10 51.15351 -0.15102 512 ft 146 kts 253°
2026-04-14 15:10 51.15138 -0.16684 319 ft 148 kts 252°
2026-04-14 15:10 51.14932 -0.18235 407 ft 147 kts 250°
2026-04-14 15:10 51.14681 -0.19994 1236 ft 170 kts 250°
2026-04-14 15:11 51.14413 -0.21856 1913 ft 181 kts 250°
2026-04-14 15:11 51.14102 -0.23906 2602 ft 196 kts 251°
2026-04-14 15:11 51.13757 -0.26028 2933 ft 198 kts 250°
2026-04-14 15:11 51.13288 -0.28031 3003 ft 190 kts 231°
2026-04-14 15:12 51.12250 -0.29192 3012 ft 185 kts 194°
2026-04-14 15:12 51.10989 -0.28998 3012 ft 192 kts 158°
2026-04-14 15:12 51.10016 -0.27514 3013 ft 201 kts 127°
2026-04-14 15:12 51.09348 -0.25536 3006 ft 204 kts 122°
2026-04-14 15:13 51.08737 -0.23495 3013 ft 204 kts 121°
2026-04-14 15:13 51.08139 -0.21447 3014 ft 204 kts 121°
2026-04-14 15:13 51.07556 -0.19388 3004 ft 206 kts 116°
2026-04-14 15:13 51.07464 -0.16995 2998 ft 232 kts 83°
2026-04-14 15:14 51.07889 -0.14479 3004 ft 238 kts 77°
2026-04-14 15:14 51.08389 -0.11966 3012 ft 240 kts 76°
2026-04-14 15:14 51.08908 -0.09428 3010 ft 241 kts 76°
2026-04-14 15:14 51.09429 -0.06899 3010 ft 241 kts 76°
2026-04-14 15:15 51.09955 -0.04361 3011 ft 241 kts 76°
2026-04-14 15:15 51.10478 -0.01827 3012 ft 242 kts 76°
2026-04-14 15:15 51.11000 0.00713 2941 ft 240 kts 76°
2026-04-14 15:15 51.11513 0.03235 2939 ft 240 kts 76°
2026-04-14 15:16 51.12020 0.05738 2920 ft 241 kts 76°
2026-04-14 15:16 51.12534 0.08275 2917 ft 240 kts 76°
2026-04-14 15:16 51.13109 0.10775 2906 ft 243 kts 64°
2026-04-14 15:16 51.14282 0.12716 2891 ft 248 kts 31°
2026-04-14 15:17 51.15872 0.13414 2891 ft 231 kts 356°
2026-04-14 15:17 51.17319 0.12694 2885 ft 209 kts 319°
2026-04-14 15:17 51.18209 0.11030 2910 ft 193 kts 295°
2026-04-14 15:17 51.18850 0.09188 2913 ft 187 kts 286°
2026-04-14 15:18 51.18858 0.07275 2915 ft 170 kts 239°
2026-04-14 15:18 51.18218 0.05716 2916 ft 171 kts 237°
2026-04-14 15:18 51.17936 0.03847 2785 ft 174 kts 254°
2026-04-14 15:18 51.17686 0.01967 2584 ft 173 kts 251°
2026-04-14 15:19 51.17428 0.00103 2373 ft 175 kts 251°
2026-04-14 15:19 51.17169 -0.01790 2214 ft 175 kts 251°
2026-04-14 15:19 51.16915 -0.03659 1962 ft 167 kts 250°
2026-04-14 15:19 51.16686 -0.05367 1758 ft 151 kts 249°
2026-04-14 15:20 51.16468 -0.06959 1556 ft 145 kts 249°
2026-04-14 15:20 51.16254 -0.08517 1355 ft 144 kts 250°
2026-04-14 15:20 51.16035 -0.10070 1129 ft 144 kts 250°
2026-04-14 15:20 51.15820 -0.11629 945 ft 145 kts 254°
2026-04-14 15:21 51.15608 -0.13199 726 ft 147 kts 254°
2026-04-14 15:21 51.15400 -0.14778 555 ft 143 kts 251°
2026-04-14 15:21 51.15180 -0.16331 350 ft 145 kts 250°
2026-04-14 15:21 51.14976 -0.17868 223 ft 135 kts 256°
2026-04-14 15:22 51.14799 -0.19296 648 ft 142 kts 253°
2026-04-14 15:22 51.14627 -0.20931 1675 ft 156 kts 252°
2026-04-14 15:22 51.14425 -0.22734 2181 ft 177 kts 252°
2026-04-14 15:22 51.14192 -0.24628 2951 ft 165 kts 253°
2026-04-14 15:23 51.13774 -0.26528 3021 ft 197 kts 231°
2026-04-14 15:23 51.12673 -0.27805 3012 ft 200 kts 196°
2026-04-14 15:23 51.11286 -0.27754 3011 ft 205 kts 165°
2026-04-14 15:23 51.10090 -0.26484 3010 ft 215 kts 135°
2026-04-14 15:24 51.09424 -0.24302 3010 ft 224 kts 114°
2026-04-14 15:24 51.08925 -0.21950 3009 ft 224 kts 114°
2026-04-14 15:24 51.08433 -0.19608 3010 ft 223 kts 114°
2026-04-14 15:24 51.07940 -0.17270 3009 ft 223 kts 114°
2026-04-14 15:25 51.07444 -0.14932 3011 ft 224 kts 114°
2026-04-14 15:25 51.06945 -0.12591 3011 ft 224 kts 114°
2026-04-14 15:25 51.06452 -0.10283 3009 ft 224 kts 115°
2026-04-14 15:25 51.05947 -0.07935 3010 ft 224 kts 115°
2026-04-14 15:26 51.05442 -0.05592 3013 ft 224 kts 114°
2026-04-14 15:26 51.04938 -0.03250 3012 ft 224 kts 115°
2026-04-14 15:26 51.04434 -0.00915 3010 ft 224 kts 114°
2026-04-14 15:26 51.03930 0.01420 2960 ft 223 kts 114°
2026-04-14 15:27 51.03426 0.03742 2955 ft 222 kts 114°
2026-04-14 15:27 51.02923 0.06061 2955 ft 222 kts 114°
2026-04-14 15:27 51.02420 0.08382 2952 ft 222 kts 114°
2026-04-14 15:27 51.01917 0.10700 2931 ft 222 kts 114°
2026-04-14 15:28 51.01281 0.12866 2936 ft 216 kts 135°
2026-04-14 15:28 51.00091 0.14175 2938 ft 207 kts 165°
2026-04-14 15:28 50.98689 0.14377 2952 ft 204 kts 191°
2026-04-14 15:28 50.97401 0.13506 2954 ft 204 kts 216°
2026-04-14 15:29 50.96516 0.11742 2965 ft 209 kts 243°
2026-04-14 15:29 50.96280 0.09442 2979 ft 219 kts 271°
2026-04-14 15:29 50.96743 0.07108 2984 ft 224 kts 287°
2026-04-14 15:29 50.97340 0.04812 2984 ft 226 kts 287°
2026-04-14 15:30 50.97934 0.02542 2990 ft 225 kts 287°
2026-04-14 15:30 50.98531 0.00248 2991 ft 225 kts 287°
2026-04-14 15:30 50.99230 -0.01976 3020 ft 230 kts 303°
2026-04-14 15:30 51.00543 -0.03462 3011 ft 239 kts 339°
2026-04-14 15:31 51.02208 -0.03541 3014 ft 245 kts 16°
2026-04-14 15:31 51.03616 -0.02100 3010 ft 242 kts 54°
2026-04-14 15:31 51.04262 0.00274 2960 ft 232 kts 89°
2026-04-14 15:31 51.04029 0.02710 2957 ft 220 kts 117°
2026-04-14 15:32 51.03442 0.04960 2958 ft 221 kts 118°
2026-04-14 15:32 51.02860 0.07192 2948 ft 221 kts 117°
2026-04-14 15:32 51.02276 0.09445 2939 ft 221 kts 118°
2026-04-14 15:32 51.01682 0.11700 2941 ft 221 kts 121°
2026-04-14 15:33 51.00747 0.13533 2936 ft 212 kts 148°
2026-04-14 15:33 50.99571 0.14931 2938 ft 215 kts 136°
2026-04-14 15:33 50.99033 0.17141 2930 ft 229 kts 94°
2026-04-14 15:33 50.99568 0.19534 2926 ft 241 kts 52°
2026-04-14 15:34 51.00984 0.20904 2916 ft 243 kts
2026-04-14 15:34 51.02605 0.20570 2901 ft 236 kts 328°
2026-04-14 15:34 51.03885 0.19000 2905 ft 231 kts 308°
2026-04-14 15:34 51.04850 0.16990 2904 ft 228 kts 297°
2026-04-14 15:35 51.05750 0.14906 2903 ft 229 kts 299°
2026-04-14 15:35 51.06519 0.12733 2918 ft 222 kts 283°
2026-04-14 15:35 51.06718 0.10371 2927 ft 214 kts 266°
2026-04-14 15:35 51.06723 0.08009 2928 ft 214 kts 264°
2026-04-14 15:36 51.06693 0.05639 2938 ft 215 kts 263°
2026-04-14 15:36 51.06651 0.03262 2951 ft 214 kts 263°
2026-04-14 15:36 51.06493 0.00926 2964 ft 211 kts 246°
2026-04-14 15:36 51.05691 -0.00940 3013 ft 204 kts 217°
2026-04-14 15:37 51.04420 -0.01825 3014 ft 201 kts 188°
2026-04-14 15:37 51.03041 -0.01509 3013 ft 206 kts 159°
2026-04-14 15:37 51.01950 -0.00035 3004 ft 217 kts 127°
2026-04-14 15:37 51.01527 0.02281 2969 ft 227 kts 95°
2026-04-14 15:38 51.01565 0.04804 2962 ft 229 kts 93°
2026-04-14 15:38 51.01621 0.07338 2954 ft 230 kts 93°
2026-04-14 15:38 51.01676 0.09868 2943 ft 229 kts 92°
2026-04-14 15:38 51.01777 0.12407 2931 ft 233 kts 83°
2026-04-14 15:39 51.02503 0.14728 2925 ft 241 kts 49°
2026-04-14 15:39 51.03918 0.16135 2909 ft 244 kts 14°
2026-04-14 15:39 51.05582 0.16132 2898 ft 239 kts 340°
2026-04-14 15:39 51.06551 0.15363 2894 ft 233 kts 317°
2026-04-14 15:40 51.07686 0.12616 2907 ft 220 kts 277°
2026-04-14 15:40 51.07688 0.10287 2916 ft 212 kts 256°
2026-04-14 15:40 51.07560 0.07949 2935 ft 213 kts 262°
2026-04-14 15:40 51.07527 0.05590 2932 ft 214 kts 264°
2026-04-14 15:41 51.07514 0.03218 2938 ft 215 kts 264°
2026-04-14 15:41 51.07479 0.00850 2958 ft 213 kts 258°
2026-04-14 15:41 51.07015 -0.01331 3022 ft 206 kts 233°
2026-04-14 15:41 51.06005 -0.02872 3015 ft 201 kts 208°
2026-04-14 15:42 51.04680 -0.03480 3012 ft 201 kts 184°
2026-04-14 15:42 51.03307 -0.03067 3008 ft 206 kts 159°
2026-04-14 15:42 51.02167 -0.01646 3019 ft 215 kts 133°
2026-04-14 15:42 51.01558 0.00566 2968 ft 225 kts 103°
2026-04-14 15:43 51.01523 0.03044 2970 ft 230 kts 94°
2026-04-14 15:43 51.01571 0.05581 2965 ft 230 kts 92°
2026-04-14 15:43 51.01631 0.08121 2950 ft 230 kts 92°
2026-04-14 15:43 51.01670 0.09841 2946 ft 230 kts 93°
2026-04-14 15:44 51.01909 0.13186 2928 ft 236 kts 72°
2026-04-14 15:44 51.02879 0.15297 2920 ft 243 kts 38°
2026-04-14 15:44 51.04430 0.16286 2910 ft 243 kts
2026-04-14 15:44 51.06056 0.15817 2898 ft 237 kts 329°
2026-04-14 15:45 51.06920 0.14815 2907 ft 230 kts 308°
2026-04-14 15:45 51.07673 0.12669 2902 ft 220 kts 278°
2026-04-14 15:45 51.07773 0.10291 2917 ft 215 kts 264°
2026-04-14 15:45 51.07736 0.07900 2929 ft 217 kts 263°
2026-04-14 15:46 51.07681 0.05504 2938 ft 218 kts 262°
2026-04-14 15:46 51.07623 0.03088 2942 ft 219 kts 262°
2026-04-14 15:46 51.07429 -0.00076 2966 ft 214 kts 248°
2026-04-14 15:46 51.06682 -0.02054 3023 ft 207 kts 222°
2026-04-14 15:47 51.05913 -0.02984 3013 ft 205 kts 211°
2026-04-14 15:47 51.04597 -0.03681 3011 ft 206 kts 182°
2026-04-14 15:47 51.03234 -0.02995 3011 ft 214 kts 148°
2026-04-14 15:47 51.02323 -0.01079 3006 ft 227 kts 115°
2026-04-14 15:48 51.02221 0.01450 2961 ft 238 kts 81°
2026-04-14 15:48 51.03010 0.03780 2953 ft 246 kts 47°
2026-04-14 15:48 51.04458 0.05153 2947 ft 240 kts 13°
2026-04-14 15:48 51.06075 0.05516 2936 ft 231 kts
2026-04-14 15:49 51.07673 0.05687 2932 ft 230 kts
2026-04-14 15:49 51.09261 0.05820 2932 ft 228 kts 358°
2026-04-14 15:49 51.10830 0.05554 2930 ft 226 kts 347°
2026-04-14 15:49 51.12353 0.05127 2929 ft 225 kts 346°
2026-04-14 15:50 51.13889 0.04679 2871 ft 223 kts 346°
2026-04-14 15:50 51.15415 0.04235 2591 ft 224 kts 346°
2026-04-14 15:50 51.16937 0.03725 2365 ft 222 kts 336°
2026-04-14 15:50 51.18075 0.02269 2143 ft 207 kts 291°
2026-04-14 15:51 51.18208 0.00144 1992 ft 190 kts 244°
2026-04-14 15:51 51.17441 -0.01493 2032 ft 185 kts 223°
2026-04-14 15:51 51.16869 -0.03284 1948 ft 188 kts 256°
2026-04-14 15:51 51.16703 -0.05334 1743 ft 185 kts 251°
2026-04-14 15:52 51.16430 -0.07293 1521 ft 178 kts 250°
2026-04-14 15:52 51.16177 -0.09122 1301 ft 159 kts 250°
2026-04-14 15:52 51.15954 -0.10745 1082 ft 145 kts 251°
2026-04-14 15:52 51.15747 -0.12257 860 ft 136 kts 252°
2026-04-14 15:53 51.15545 -0.13724 683 ft 134 kts 249°
2026-04-14 15:53 51.15348 -0.15163 527 ft 132 kts 249°
2026-04-14 15:53 51.15154 -0.16573 325 ft 131 kts 251°
2026-04-14 15:53 51.14964 -0.17977 222 ft 125 kts 255°
2026-04-14 15:54 51.14761 -0.19706 211 ft 30 kts 282°
2026-04-14 15:54 51.14798 -0.19962 212 ft 13 kts 284°
2026-04-14 15:54 51.14857 -0.20020 209 ft 11 kts 37°
2026-04-14 15:55 51.14877 -0.19911 212 ft 10 kts 77°
2026-04-14 15:55 51.14892 -0.19804 211 ft 10 kts 77°
2026-04-14 15:55 51.14907 -0.19703 210 ft 9 kts 77°
2026-04-14 15:55 51.14922 -0.19596 207 ft 11 kts 77°
2026-04-14 15:56 51.14939 -0.19479 207 ft 11 kts 77°
2026-04-14 15:56 51.14956 -0.19362 208 ft 11 kts 77°
2026-04-14 15:56 51.14997 -0.19274 208 ft 11 kts 12°
2026-04-14 15:56 51.15072 -0.19163 217 ft 20 kts 86°
2026-04-14 15:57 51.15105 -0.18924 211 ft 24 kts 77°
2026-04-14 15:57 51.15143 -0.18644 211 ft 25 kts 77°
2026-04-14 15:57 51.15174 -0.18424 216 ft 8 kts 77°
2026-04-14 15:57 51.15182 -0.18364 205 ft 0 kts 77°
2026-04-14 15:58 51.15184 -0.18351 205 ft 2 kts 77°
2026-04-14 15:58 51.15489 -0.18477 216 ft 1 kts 258°